This is the latest recevied weather packets stored in our database for station/object N1ICS-1. If no packets are shown the sender has not sent any weather packets the latest 10 day(s).
| Time | Temp. | Humidity | Pressure | Rain* | Wind** | Luminosity | Snow |
|---|---|---|---|---|---|---|---|
| 1778014501 | 9.44° C | 99% | 1009.8 hPa | 1.02 mm | - | 116 W/m² | - |
| 1778014202 | 9.44° C | 99% | 1009.8 hPa | 1.02 mm | - | 116 W/m² | - |
| 1778013901 | 9.44° C | 99% | 1009.9 hPa | 1.02 mm | - | 123 W/m² | - |
| 1778013602 | 9.44° C | 99% | 1009.9 hPa | 1.78 mm | - | 84 W/m² | - |
| 1778013302 | 9.44° C | 99% | 1010 hPa | 1.78 mm | - | 63 W/m² | - |
| 1778013002 | 9.44° C | 99% | 1009.9 hPa | 1.02 mm | - | 71 W/m² | - |
| 1778012702 | 9.44° C | 99% | 1010 hPa | 2.29 mm | - | 88 W/m² | - |
| 1778012402 | 9.44° C | 99% | 1009.9 hPa | 2.79 mm | - | 120 W/m² | - |
| 1778012101 | 9.44° C | 98% | 1009.9 hPa | 4.06 mm | - | 102 W/m² | - |
| 1778011802 | 9.44° C | 98% | 1010.3 hPa | 4.06 mm | - | 110 W/m² | - |
| 1778011502 | 9.44° C | 98% | 1010.2 hPa | 2.79 mm | - | 83 W/m² | - |
| 1778011203 | 9.44° C | 98% | 1010.2 hPa | 2.79 mm | - | 116 W/m² | - |
| 1778010901 | 9.44° C | 98% | 1010 hPa | 4.06 mm | - | 116 W/m² | - |
| 1778010602 | 9.44° C | 98% | 1010 hPa | 4.06 mm | - | 116 W/m² | - |
| 1778010302 | 9.44° C | 97% | 1010.1 hPa | 1.78 mm | - | 113 W/m² | - |
| 1778010001 | 10° C | 97% | 1010.1 hPa | 2.29 mm | - | 109 W/m² | - |
| 1778009702 | 10° C | 98% | 1010.3 hPa | 2.29 mm | - | 107 W/m² | - |
| 1778009402 | 10° C | 98% | 1010.2 hPa | 1.78 mm | - | 129 W/m² | - |
| 1778009101 | 10° C | 98% | 1010.4 hPa | 1.02 mm | - | 82 W/m² | - |
| 1778008802 | 10° C | 97% | 1010.3 hPa | 1.02 mm | - | 92 W/m² | - |
| 1778008502 | 10° C | 97% | 1010.4 hPa | 1.02 mm | - | 143 W/m² | - |
| 1778008202 | 10° C | 98% | 1010.1 hPa | 1.02 mm | - | 135 W/m² | - |
| 1778007902 | 10° C | 98% | 1010.1 hPa | 1.02 mm | - | 113 W/m² | - |
| 1778007602 | 10° C | 98% | 1010.3 hPa | 1.02 mm | - | 93 W/m² | - |
| 1778007302 | 10° C | 98% | 1010.3 hPa | 2.29 mm | - | 134 W/m² | - |
* Rain latest hour (hover to see other rain measurements)
** Current wind speed in m/s (hover to see current wind gust speed)